Regional Weather Roundup
Issued by NWS Burlington, VT

Home | Current Version | Previous Version | Text Only | Print | Product List | Glossary On
Versions: 1 2 3 4 5 6 7 8 9 10 11 12 13 14 15 16 17 18 19 20 21 22 23 24 25 26 27 28 29 30 31 32 33 34 35 36 37 38 39 40 41 42 43 44 45 46 47 48 49 50
000
ASUS41 KBTV 012210
RWRBTV
VERMONT REGIONAL WEATHER ROUNDUP
NATIONAL WEATHER SERVICE BURLINGTON VT
600 PM EDT SUN MAY 01 2016

NOTE: "FAIR" INDICATES FEW OR NO CLOUDS BELOW 12,000 FEET WITH NO
SIGNIFICANT WEATHER AND/OR OBSTRUCTIONS TO VISIBILITY.

* THESE REPORTS ARE NOT UNDER NWS QUALITY CONTROL AND/OR DO NOT
  REPORT WEATHER SUCH AS PRECIPITATION AND FOG.

VTZ001>019-012300-
_____VERMONT_____


CITY           SKY/WX    TMP DP  RH WIND       PRES   REMARKS
BURLINGTON     CLOUDY    48  45  89 CALM      30.09F
MONTPELIER     LGT RAIN  46  43  89 S8        30.14F FOG
MORRISVILLE    LGT RAIN  46  43  89 SE7       30.12F
ST. JOHNSBURY*   N/A     48  44  86 MISG      30.12S
LYNDONVILLE*   DRIZZLE   45  43  93 SE6       30.14S
MIDDLEBURY*    CLOUDY    47  47 100 S7        30.09S
RUTLAND*       CLOUDY    45  36  70 SE12      30.11F
SPRINGFIELD    LGT RAIN  46  43  89 SE5       30.14F
HIGHGATE*      LGT RAIN  49  46  89 E7        30.09F
NEWPORT*       DRIZZLE   46  44  90 SE5       30.12F
BENNINGTON     CLOUDY    46  37  71 VRB7      30.10F

_____LAKE CHAMPLAIN_____


CITY           SKY/WX    TMP DP  RH WIND       PRES   REMARKS
COLCHESTER RF*   N/A     45  45 100 SE9         N/A
DIAMOND ISL*     N/A     48  45  87 S8          N/A

$$

NYZ007-026>031-035-052-083-087-012300-
_____NORTHERN NEW YORK_____


CITY           SKY/WX    TMP DP  RH WIND       PRES   REMARKS
PLATTSBURGH    LGT RAIN  45  44  97 SE5       30.08F FOG
SARANAC LAKE   CLOUDY    44  39  82 CALM      30.02S
MASSENA        LGT RAIN  46  43  89 NE9       30.08S FOG
OGDENSBURG*    DRIZZLE   48  46  93 E6        30.04S
WATERTOWN      LGT RAIN  47  46  97 NE5       30.00F FOG
FT DRUM        CLOUDY    46  45  93 SE9       30.00S
ALBANY         CLOUDY    46  39  76 SE9G16    30.11F
GLENS FALLS    CLOUDY    46  42  86 S6        30.11S FOG

$$
NHZ002-005-011-012300-
_____NEW HAMPSHIRE_____


CITY           SKY/WX    TMP DP  RH WIND       PRES   REMARKS
LEBANON        CLOUDY    47  41  80 SE3       30.14S
KEENE          CLOUDY    48  30  49 S8        30.15F
MT WASHINGTON  SNOW      28  28 100 SE22        N/A  VSB 0   WCI  15
PLYMOUTH       DRIZZLE   48  45  91 E5        30.16S
WHITEFIELD     CLOUDY    50  42  74 S6        30.13F

$$

_____REGIONAL QUEBEC LOCATIONS_____


CITY           SKY/WX    TMP DP  RH WIND       PRES   REMARKS
MONTREAL       LGT RAIN  46  45  93 NE7       30.10F
QUEBEC CITY    CLOUDY    54  27  35 E10       30.11F
SHERBROOKE     LGT RAIN  46  43  87 VRB2      30.12S

_____REGIONAL ONTARIO LOCATIONS_____


CITY           SKY/WX    TMP DP  RH WIND       PRES   REMARKS
OTTAWA         LGT RAIN  43  41  93 NE15G21   30.09R

______KEY______
VSB  - VISIBILITY IN MILES
WCI  - WIND CHILL INDEX
HX   - HEAT INDEX
$$
NNNN




USA.gov is the U.S. government's official web portal to all federal, state and local government web resources and services.